Add date Part number Description Manufacture PDF
01-18-2018 1N4749A DIP Type Zener Diodes 1N4728A ~ 1N Kexin 1N4749A datasheet
01-18-2018 1N4750A DIP Type Zener Diodes 1N4728A ~ 1N Kexin 1N4750A datasheet
01-18-2018 1N4746A DIP Type Zener Diodes 1N4728A ~ 1N Kexin 1N4746A datasheet
01-18-2018 1N4747A DIP Type Zener Diodes 1N4728A ~ 1N Kexin 1N4747A datasheet
01-18-2018 1N4755A DIP Type Zener Diodes 1N4728A ~ 1N Kexin 1N4755A datasheet
01-18-2018 1N4756A DIP Type Zener Diodes 1N4728A ~ 1N Kexin 1N4756A datasheet
01-18-2018 1N4752A DIP Type Zener Diodes 1N4728A ~ 1N Kexin 1N4752A datasheet
01-18-2018 1N4753A DIP Type Zener Diodes 1N4728A ~ 1N Kexin 1N4753A datasheet
01-18-2018 IRF840LC Power MOSFET IRF840LC, SiHF840LC V Vishay IRF840LC datasheet
01-18-2018 1N4758A DIP Type Zener Diodes 1N4728A ~ 1N Kexin 1N4758A datasheet
01-18-2018 SM15 POWER RELAYS — ENVIRONMENTALLY SE Safran SM15 datasheet
01-18-2018 BUY48 HIGH VOLTAGE, HIGH CURRENT NPN TRAN TT BUY48 datasheet
01-18-2018 S5X S5A ... S5Y S5A ... S5Y Standard R Diotec S5X datasheet
01-18-2018 S5M S5A ... S5Y S5A ... S5Y Standard R Diotec S5M datasheet
01-18-2018 S5T S5A ... S5Y S5A ... S5Y Standard R Diotec S5T datasheet
01-18-2018 S5J S5A ... S5Y S5A ... S5Y Standard R Diotec S5J datasheet
01-18-2018 S5B S5A ... S5Y S5A ... S5Y Standard R Diotec S5B datasheet
01-18-2018 S5M 5.0A Surface Mount Rectifier S5A TAITRON S5M datasheet
01-18-2018 S5T8557B 1 CHIP CODEC INTRODUCTION The S5T8 Samsung S5T8557B datasheet
01-18-2018 S5G 5.0A Surface Mount Rectifier S5A TAITRON S5G datasheet
01-18-2018 S5J 5.0A Surface Mount Rectifier S5A TAITRON S5J datasheet
01-18-2018 S5A 5.0A Surface Mount Rectifier S5A TAITRON S5A datasheet
01-18-2018 S5B 5.0A Surface Mount Rectifier S5A TAITRON S5B datasheet
01-18-2018 S5K www.vishay.com S5A, S5B, S5D, S5G, Vishay S5K datasheet
01-18-2018 S5D www.vishay.com S5A, S5B, S5D, S5G, Vishay S5D datasheet
01-18-2018 S5G www.vishay.com S5A, S5B, S5D, S5G, Vishay S5G datasheet
01-18-2018 S5A www.vishay.com S5A, S5B, S5D, S5G, Vishay S5A datasheet
01-18-2018 S5K S5A - S5M Taiwan Semiconductor 5A, Taiwan Semiconductor S5K datasheet
01-18-2018 S5B S5A - S5M Taiwan Semiconductor 5A, Taiwan Semiconductor S5B datasheet
01-18-2018 1N4743A DIP Type Zener Diodes 1N4728A ~ 1N Kexin 1N4743A datasheet
01-18-2018 S5M S5A ... S5M www..com S Semikron International S5M datasheet
01-18-2018 S5D S5A ... S5M www..com S Semikron International S5D datasheet
01-18-2018 S5B S5A ... S5M www..com S Semikron International S5B datasheet
01-18-2018 1N4736A DIP Type Zener Diodes 1N4728A ~ 1N Kexin 1N4736A datasheet
01-18-2018 1N4737A DIP Type Zener Diodes 1N4728A ~ 1N Kexin 1N4737A datasheet
01-18-2018 TL072 Order this document by TL071C/D Lo Motorola TL072 datasheet
01-18-2018 TL071A Order this document by TL071C/D Lo Motorola TL071A datasheet
01-18-2018 TL071AC Order this document by TL071C/D Lo Motorola TL071AC datasheet
01-18-2018 1N4733A DIP Type Zener Diodes 1N4728A ~ 1N Kexin 1N4733A datasheet
01-18-2018 1N4734A DIP Type Zener Diodes 1N4728A ~ 1N Kexin 1N4734A datasheet
01-18-2018 1N4732A DIP Type Zener Diodes 1N4728A ~ 1N Kexin 1N4732A datasheet
01-18-2018 1N4730A DIP Type Zener Diodes 1N4728A ~ 1N Kexin 1N4730A datasheet
01-18-2018 1N4731A DIP Type Zener Diodes 1N4728A ~ 1N Kexin 1N4731A datasheet
01-18-2018 1N4729A DIP Type Zener Diodes 1N4728A ~ 1N Kexin 1N4729A datasheet
01-18-2018 1N4728A DIP Type Zener Diodes 1N4728A ~ 1N Kexin 1N4728A datasheet
01-18-2018 R3131N47EC  R3130NxxB/D/H (SOT23-3) are the RICOH R3131N47EC datasheet
01-18-2018 R3131N48EC  R3130NxxB/D/H (SOT23-3) are the RICOH R3131N48EC datasheet
01-18-2018 R3131N46EC  R3130NxxB/D/H (SOT23-3) are the RICOH R3131N46EC datasheet
01-18-2018 R3131N45EC  R3130NxxB/D/H (SOT23-3) are the RICOH R3131N45EC datasheet
01-18-2018 R3131N43EC  R3130NxxB/D/H (SOT23-3) are the RICOH R3131N43EC datasheet
01-18-2018 R3131N44EC  R3130NxxB/D/H (SOT23-3) are the RICOH R3131N44EC datasheet
01-18-2018 R3131N42EC  R3130NxxB/D/H (SOT23-3) are the RICOH R3131N42EC datasheet
01-18-2018 R3131N41EC  R3130NxxB/D/H (SOT23-3) are the RICOH R3131N41EC datasheet
01-18-2018 R3131N39EC  R3130NxxB/D/H (SOT23-3) are the RICOH R3131N39EC datasheet
01-18-2018 R3131N40EC  R3130NxxB/D/H (SOT23-3) are the RICOH R3131N40EC datasheet
01-18-2018 R3131N38EC  R3130NxxB/D/H (SOT23-3) are the RICOH R3131N38EC datasheet
01-18-2018 R3131N37EC  R3130NxxB/D/H (SOT23-3) are the RICOH R3131N37EC datasheet
01-18-2018 R3131N35EC  R3130NxxB/D/H (SOT23-3) are the RICOH R3131N35EC datasheet
01-18-2018 R3131N36EC  R3130NxxB/D/H (SOT23-3) are the RICOH R3131N36EC datasheet
01-18-2018 R3131N34EC  R3130NxxB/D/H (SOT23-3) are the RICOH R3131N34EC datasheet
01-18-2018 R3131N33EC  R3130NxxB/D/H (SOT23-3) are the RICOH R3131N33EC datasheet
01-18-2018 R3131N31EC  R3130NxxB/D/H (SOT23-3) are the RICOH R3131N31EC datasheet
01-18-2018 R3131N32EC  R3130NxxB/D/H (SOT23-3) are the RICOH R3131N32EC datasheet
01-18-2018 R3131N30EC  R3130NxxB/D/H (SOT23-3) are the RICOH R3131N30EC datasheet
01-18-2018 R3131N29EC  R3130NxxB/D/H (SOT23-3) are the RICOH R3131N29EC datasheet
01-18-2018 R3131N27EC  R3130NxxB/D/H (SOT23-3) are the RICOH R3131N27EC datasheet
01-18-2018 R3131N28EC  R3130NxxB/D/H (SOT23-3) are the RICOH R3131N28EC datasheet
01-18-2018 R3131N26EC  R3130NxxB/D/H (SOT23-3) are the RICOH R3131N26EC datasheet
01-18-2018 R3131N23EC  R3130NxxB/D/H (SOT23-3) are the RICOH R3131N23EC datasheet
01-18-2018 R3131N24EC  R3130NxxB/D/H (SOT23-3) are the RICOH R3131N24EC datasheet
01-18-2018 R3131N25EC  R3130NxxB/D/H (SOT23-3) are the RICOH R3131N25EC datasheet
01-18-2018 R3131N22EC  R3130NxxB/D/H (SOT23-3) are the RICOH R3131N22EC datasheet
01-18-2018 R3131N21EC  R3130NxxB/D/H (SOT23-3) are the RICOH R3131N21EC datasheet
01-18-2018 R3131N19EC  R3130NxxB/D/H (SOT23-3) are the RICOH R3131N19EC datasheet
01-18-2018 R3131N20EC  R3130NxxB/D/H (SOT23-3) are the RICOH R3131N20EC datasheet
01-18-2018 R3131N18EC  R3130NxxB/D/H (SOT23-3) are the RICOH R3131N18EC datasheet
01-18-2018 R3131N17EC  R3130NxxB/D/H (SOT23-3) are the RICOH R3131N17EC datasheet
01-18-2018 R3131N47EA  R3130NxxB/D/H (SOT23-3) are the RICOH R3131N47EA datasheet
01-18-2018 R3131N48EA  R3130NxxB/D/H (SOT23-3) are the RICOH R3131N48EA datasheet
01-18-2018 R3131N46EA  R3130NxxB/D/H (SOT23-3) are the RICOH R3131N46EA datasheet
01-18-2018 R3131N45EA  R3130NxxB/D/H (SOT23-3) are the RICOH R3131N45EA datasheet
01-18-2018 US1BF US1AF thru US1MF 表面安装超 SMD US1BF datasheet
01-18-2018 US1DF US1AF thru US1MF 表面安装超 SMD US1DF datasheet
01-18-2018 US1GF US1AF thru US1MF 表面安装超 SMD US1GF datasheet
01-18-2018 US1JF US1AF thru US1MF 表面安装超 SMD US1JF datasheet
01-18-2018 US1KF US1AF thru US1MF 表面安装超 SMD US1KF datasheet
01-18-2018 US1MF US1AF thru US1MF 表面安装超 SMD US1MF datasheet
01-18-2018 ICL7660A ICL7660A, ICL7660A CMOS Voltage Con Renesas ICL7660A datasheet
01-18-2018 ICL7660 ICL7660A, ICL7660A CMOS Voltage Con Renesas ICL7660 datasheet
01-18-2018 R3131N16EA  R3130NxxB/D/H (SOT23-3) are the RICOH R3131N16EA datasheet
01-18-2018 R3131N16EC  R3130NxxB/D/H (SOT23-3) are the RICOH R3131N16EC datasheet
01-18-2018 R3131N17EA  R3130NxxB/D/H (SOT23-3) are the RICOH R3131N17EA datasheet
01-18-2018 R3131N18EA  R3130NxxB/D/H (SOT23-3) are the RICOH R3131N18EA datasheet
01-18-2018 R3131N19EA  R3130NxxB/D/H (SOT23-3) are the RICOH R3131N19EA datasheet
01-18-2018 R3131N20EA  R3130NxxB/D/H (SOT23-3) are the RICOH R3131N20EA datasheet
01-18-2018 R3131N21EA  R3130NxxB/D/H (SOT23-3) are the RICOH R3131N21EA datasheet
01-18-2018 R3131N22EA  R3130NxxB/D/H (SOT23-3) are the RICOH R3131N22EA datasheet
01-18-2018 R3131N23EA  R3130NxxB/D/H (SOT23-3) are the RICOH R3131N23EA datasheet
01-18-2018 R3131N24EA  R3130NxxB/D/H (SOT23-3) are the RICOH R3131N24EA datasheet
01-18-2018 R3131N25EA  R3130NxxB/D/H (SOT23-3) are the RICOH R3131N25EA datasheet
01-18-2018 R3131N26EA  R3130NxxB/D/H (SOT23-3) are the RICOH R3131N26EA datasheet
01-18-2018 R3131N27EA  R3130NxxB/D/H (SOT23-3) are the RICOH R3131N27EA datasheet
01-18-2018 R3131N28EA  R3130NxxB/D/H (SOT23-3) are the RICOH R3131N28EA datasheet
01-18-2018 R3131N29EA  R3130NxxB/D/H (SOT23-3) are the RICOH R3131N29EA datasheet
01-18-2018 R3131N30EA  R3130NxxB/D/H (SOT23-3) are the RICOH R3131N30EA datasheet
01-18-2018 R3131N31EA  R3130NxxB/D/H (SOT23-3) are the RICOH R3131N31EA datasheet
01-18-2018 R3131N32EA  R3130NxxB/D/H (SOT23-3) are the RICOH R3131N32EA datasheet
01-18-2018 R3131N33EA  R3130NxxB/D/H (SOT23-3) are the RICOH R3131N33EA datasheet
01-18-2018 R3131N34EA  R3130NxxB/D/H (SOT23-3) are the RICOH R3131N34EA datasheet
01-18-2018 R3131N35EA  R3130NxxB/D/H (SOT23-3) are the RICOH R3131N35EA datasheet
01-18-2018 R3131N36EA  R3130NxxB/D/H (SOT23-3) are the RICOH R3131N36EA datasheet
01-18-2018 R3131N37EA  R3130NxxB/D/H (SOT23-3) are the RICOH R3131N37EA datasheet
01-18-2018 R3131N38EA  R3130NxxB/D/H (SOT23-3) are the RICOH R3131N38EA datasheet
01-18-2018 US1MF DIOFIT US1MF datasheet
01-18-2018 US1AF US1AF thru US1MF 表面安装超 SMD US1AF datasheet
01-18-2018 US1JF AiT Components Inc. www.ait-compone AiT Components US1JF datasheet
01-18-2018 US1KF AiT Components Inc. www.ait-compone AiT Components US1KF datasheet
01-18-2018 US1MF AiT Components US1MF datasheet
01-18-2018 US1AF US1AF THRU US1MF SURFACE MOUNT ULTR KD US1AF datasheet
01-18-2018 US1BF US1AF THRU US1MF SURFACE MOUNT ULTR KD US1BF datasheet
01-18-2018 US1DF US1AF THRU US1MF SURFACE MOUNT ULTR KD US1DF datasheet
01-18-2018 US1GF US1AF THRU US1MF SURFACE MOUNT ULTR KD US1GF datasheet
01-18-2018 US1JF KD US1JF datasheet
01-18-2018 US1KF KD US1KF datasheet
01-18-2018 US1MF US1AF THRU US1MF SURFACE MOUNT ULTR KD US1MF datasheet
01-18-2018 US1AF FEATURES  Glass Passivated Die C Hottech US1AF datasheet
01-18-2018 US1BF Hottech US1BF datasheet
01-18-2018 US1DF Hottech US1DF datasheet
01-18-2018 US1GF Hottech US1GF datasheet
01-18-2018 US1JF FEATURES  Glass Passivated Die C Hottech US1JF datasheet
01-18-2018 US1KF Hottech US1KF datasheet
01-18-2018 US1MF FEATURES  Glass Passivated Die C Hottech US1MF datasheet
01-18-2018 US1AF US1AF THRU US1MF 1.0A Ultra Fast Re DIOFIT US1AF datasheet
01-18-2018 US1BF US1AF THRU US1MF 1.0A Ultra Fast Re DIOFIT US1BF datasheet
01-18-2018 US1DF US1AF THRU US1MF 1.0A Ultra Fast Re DIOFIT US1DF datasheet
01-18-2018 US1GF US1AF THRU US1MF 1.0A Ultra Fast Re DIOFIT US1GF datasheet
01-18-2018 US1JF US1AF THRU US1MF 1.0A Ultra Fast Re DIOFIT US1JF datasheet
01-18-2018 US1KF US1AF THRU US1MF 1.0A Ultra Fast Re DIOFIT US1KF datasheet
01-18-2018 US1DF MIC US1DF datasheet
01-18-2018 US1GF 86$)860) 5HYHUV MIC US1GF datasheet
01-18-2018 US1JF 86$)860) 5HYHUV MIC US1JF datasheet
01-18-2018 US1KF MIC US1KF datasheet
01-18-2018 US1MF 86$)860) 5HYHUV MIC US1MF datasheet
01-18-2018 US1AF SEMTECH US1AF datasheet
01-18-2018 US1BF US1AF THRU US1MF Surface Mount Ult SEMTECH US1BF datasheet
01-18-2018 US1DF US1AF THRU US1MF Surface Mount Ult SEMTECH US1DF datasheet
01-18-2018 US1GF US1AF THRU US1MF Surface Mount Ult SEMTECH US1GF datasheet
01-18-2018 US1JF US1AF THRU US1MF Surface Mount Ult SEMTECH US1JF datasheet
01-18-2018 US1KF US1AF THRU US1MF Surface Mount Ult SEMTECH US1KF datasheet
01-18-2018 US1MF US1AF THRU US1MF Surface Mount Ult SEMTECH US1MF datasheet
01-18-2018 US1AF SMD Type Ultra Fast Recovery Diode Kexin US1AF datasheet
01-18-2018 US1BF Kexin US1BF datasheet
01-18-2018 US1CF SMD Type Ultra Fast Recovery Diode Kexin US1CF datasheet
01-18-2018 US1DF SMD Type Ultra Fast Recovery Diode Kexin US1DF datasheet
01-18-2018 US1GF SMD Type Ultra Fast Recovery Diode Kexin US1GF datasheet
01-18-2018 US1JF SMD Type Ultra Fast Recovery Diode Kexin US1JF datasheet
01-18-2018 US1KF SMD Type Ultra Fast Recovery Diode Kexin US1KF datasheet
01-18-2018 US1MF Kexin US1MF datasheet
01-18-2018 US1AF AiT Components Inc. www.ait-compone AiT Components US1AF datasheet
01-18-2018 US1BF AiT Components US1BF datasheet
01-18-2018 US1DF AiT Components Inc. www.ait-compone AiT Components US1DF datasheet
01-18-2018 US1GF AiT Components Inc. www.ait-compone AiT Components US1GF datasheet
01-18-2018 EMB1JS 山东晶导微电子有限公司 J Jingdao EMB1JS datasheet
01-18-2018 EMB1BS 山东晶导微电子有限公司 J Jingdao EMB1BS datasheet
01-18-2018 EMB1CS 山东晶导微电子有限公司 J Jingdao EMB1CS datasheet
01-18-2018 EMB1DS 山东晶导微电子有限公司 J Jingdao EMB1DS datasheet
01-18-2018 EMB1ES 山东晶导微电子有限公司 J Jingdao EMB1ES datasheet
01-18-2018 EMB1GS 山东晶导微电子有限公司 J Jingdao EMB1GS datasheet
01-18-2018 MB1S MB1S~MB10S Rev.C Feb.-2015 描述 / BLUE ROCKET ELECTRONICS MB1S datasheet
01-18-2018 MB2S MB1S~MB10S Rev.C Feb.-2015 描述 / BLUE ROCKET ELECTRONICS MB2S datasheet
01-18-2018 MB4S BLUE ROCKET ELECTRONICS MB4S datasheet
01-18-2018 MB6S MB1S~MB10S Rev.C Feb.-2015 描述 / BLUE ROCKET ELECTRONICS MB6S datasheet
01-18-2018 MB8S MB1S~MB10S Rev.C Feb.-2015 描述 / BLUE ROCKET ELECTRONICS MB8S datasheet
01-18-2018 MB10S MB1S~MB10S Rev.C Feb.-2015 描述 / BLUE ROCKET ELECTRONICS MB10S datasheet
01-18-2018 MB1S-05 MB1S-05~MB10S-05 Rev.C Feb.-2015 BLUE ROCKET ELECTRONICS MB1S-05 datasheet
01-18-2018 MB2S-05 MB1S-05~MB10S-05 Rev.C Feb.-2015 BLUE ROCKET ELECTRONICS MB2S-05 datasheet
01-18-2018 MB4S-05 MB1S-05~MB10S-05 Rev.C Feb.-2015 BLUE ROCKET ELECTRONICS MB4S-05 datasheet
01-18-2018 MB6S-05 MB1S-05~MB10S-05 Rev.C Feb.-2015 BLUE ROCKET ELECTRONICS MB6S-05 datasheet
01-18-2018 MB8S-05 MB1S-05~MB10S-05 Rev.C Feb.-2015 BLUE ROCKET ELECTRONICS MB8S-05 datasheet
01-18-2018 MB10S-05 MB1S-05~MB10S-05 Rev.C Feb.-2015 BLUE ROCKET ELECTRONICS MB10S-05 datasheet
01-18-2018 MB1S-10 MB1S-10~MB10S-10 Rev.C Feb.-2015 BLUE ROCKET ELECTRONICS MB1S-10 datasheet
01-18-2018 MB2S-10 MB1S-10~MB10S-10 Rev.C Feb.-2015 BLUE ROCKET ELECTRONICS MB2S-10 datasheet
01-18-2018 MB4S-10 MB1S-10~MB10S-10 Rev.C Feb.-2015 BLUE ROCKET ELECTRONICS MB4S-10 datasheet
01-18-2018 MB6S-10 MB1S-10~MB10S-10 Rev.C Feb.-2015 BLUE ROCKET ELECTRONICS MB6S-10 datasheet
01-18-2018 MB8S-10 MB1S-10~MB10S-10 Rev.C Feb.-2015 BLUE ROCKET ELECTRONICS MB8S-10 datasheet
01-18-2018 MB10S-10 BLUE ROCKET ELECTRONICS MB10S-10 datasheet
01-18-2018 US1AF US1AF~US1MF Rev.C Feb.-2015 DATA S BLUE ROCKET ELECTRONICS US1AF datasheet
01-18-2018 US1BF US1AF~US1MF Rev.C Feb.-2015 DATA S BLUE ROCKET ELECTRONICS US1BF datasheet
01-18-2018 US1DF US1AF~US1MF Rev.C Feb.-2015 DATA S BLUE ROCKET ELECTRONICS US1DF datasheet
01-18-2018 US1GF US1AF~US1MF Rev.C Feb.-2015 DATA S BLUE ROCKET ELECTRONICS US1GF datasheet
01-18-2018 US1JF US1AF~US1MF Rev.C Feb.-2015 DATA S BLUE ROCKET ELECTRONICS US1JF datasheet
01-18-2018 US1KF US1AF~US1MF Rev.C Feb.-2015 DATA S BLUE ROCKET ELECTRONICS US1KF datasheet
01-18-2018 US1MF US1AF~US1MF Rev.C Feb.-2015 DATA S BLUE ROCKET ELECTRONICS US1MF datasheet
01-18-2018 US1AFA US1AFA - US1MFA — Super Fast Surf Fairchild Semiconductor US1AFA datasheet
01-18-2018 US1BFA US1AFA - US1MFA — Super Fast Surf Fairchild Semiconductor US1BFA datasheet
01-18-2018 US1DFA US1AFA - US1MFA — Super Fast Surf Fairchild Semiconductor US1DFA datasheet
01-18-2018 US1FFA Fairchild Semiconductor US1FFA datasheet
01-18-2018 US1GFA US1AFA - US1MFA — Super Fast Surf Fairchild Semiconductor US1GFA datasheet
01-18-2018 US1JFA US1AFA - US1MFA — Super Fast Surf Fairchild Semiconductor US1JFA datasheet
01-18-2018 US1KFA Fairchild Semiconductor US1KFA datasheet
01-18-2018 US1MFA US1AFA - US1MFA — Super Fast Surf Fairchild Semiconductor US1MFA datasheet
01-18-2018 US1AF MIC US1AF datasheet
01-18-2018 US1BF 86$)860) 5HYHUV MIC US1BF datasheet
01-18-2018 R3131N39EA  R3130NxxB/D/H (SOT23-3) are the RICOH R3131N39EA datasheet
01-18-2018 R3131N40EA  R3130NxxB/D/H (SOT23-3) are the RICOH R3131N40EA datasheet
01-18-2018 R3131N41EA  R3130NxxB/D/H (SOT23-3) are the RICOH R3131N41EA datasheet
01-18-2018 MB6M MB1M THRU MB10M MINI SILICON SURFAC KD MB6M datasheet
01-18-2018 MB8M MB1M THRU MB10M MINI SILICON SURFAC KD MB8M datasheet
01-18-2018 MB10M MB1M THRU MB10M MINI SILICON SURFAC KD MB10M datasheet
01-18-2018 EMB1AS 山东晶导微电子有限公司 J Jingdao EMB1AS datasheet
01-18-2018 MB2M MB1M THRU MB10M MINI SILICON SURFAC KD MB2M datasheet
01-18-2018 MB4M MB1M THRU MB10M MINI SILICON SURFAC KD MB4M datasheet
01-18-2018 MB1M MB1M THRU MB10M MINI SILICON SURFAC KD MB1M datasheet
01-18-2018 1.5SMC540CA 1.5SMC SERIES Transient Voltage Su Brightking 1.5SMC540CA datasheet
01-18-2018 1.5SMC550CA 1.5SMC SERIES Transient Voltage Su Brightking 1.5SMC550CA datasheet
01-18-2018 1.5SMC530CA 1.5SMC SERIES Transient Voltage Su Brightking 1.5SMC530CA datasheet
01-18-2018 1.5SMC510CA 1.5SMC SERIES Transient Voltage Su Brightking 1.5SMC510CA datasheet
01-18-2018 1.5SMC440CA 1.5SMC SERIES Transient Voltage Su Brightking 1.5SMC440CA datasheet
01-18-2018 1.5SMC480CA 1.5SMC SERIES Transient Voltage Su Brightking 1.5SMC480CA datasheet
01-18-2018 1.5SMC400CA 1.5SMC SERIES Transient Voltage Su Brightking 1.5SMC400CA datasheet
01-18-2018 1.5SMC350CA 1.5SMC SERIES Transient Voltage Su Brightking 1.5SMC350CA datasheet
01-18-2018 1.5SMC300CA 1.5SMC SERIES Transient Voltage Su Brightking 1.5SMC300CA datasheet
01-18-2018 1.5SMC250CA 1.5SMC SERIES Transient Voltage Su Brightking 1.5SMC250CA datasheet
01-18-2018 1.5SMC220CA 1.5SMC SERIES Transient Voltage Su Brightking 1.5SMC220CA datasheet
01-18-2018 1.5SMC200CA 1.5SMC SERIES Transient Voltage Su Brightking 1.5SMC200CA datasheet
01-18-2018 1.5SMC180CA 1.5SMC SERIES Transient Voltage Su Brightking 1.5SMC180CA datasheet
01-18-2018 1.5SMC170CA 1.5SMC SERIES Transient Voltage Su Brightking 1.5SMC170CA datasheet
01-18-2018 1.5SMC160CA 1.5SMC SERIES Transient Voltage Su Brightking 1.5SMC160CA datasheet
01-18-2018 1.5SMC150CA 1.5SMC SERIES Transient Voltage Su Brightking 1.5SMC150CA datasheet
01-18-2018 1.5SMC130CA 1.5SMC SERIES Transient Voltage Su Brightking 1.5SMC130CA datasheet
01-18-2018 1.5SMC120CA 1.5SMC SERIES Transient Voltage Su Brightking 1.5SMC120CA datasheet
01-18-2018 1.5SMC110CA 1.5SMC SERIES Transient Voltage Su Brightking 1.5SMC110CA datasheet
01-18-2018 1.5SMC100CA 1.5SMC SERIES Transient Voltage Su Brightking 1.5SMC100CA datasheet
01-18-2018 1.5SMC91CA 1.5SMC SERIES Transient Voltage Su Brightking 1.5SMC91CA datasheet
01-18-2018 1.5SMC75CA 1.5SMC SERIES Transient Voltage Su Brightking 1.5SMC75CA datasheet
01-18-2018 1.5SMC82CA 1.5SMC SERIES Transient Voltage Su Brightking 1.5SMC82CA datasheet
01-18-2018 1.5SMC68CA 1.5SMC SERIES Transient Voltage Su Brightking 1.5SMC68CA datasheet
01-18-2018 1.5SMC62CA 1.5SMC SERIES Transient Voltage Su Brightking 1.5SMC62CA datasheet
01-18-2018 1.5SMC56CA 1.5SMC SERIES Transient Voltage Su Brightking 1.5SMC56CA datasheet
01-18-2018 1.5SMC47CA 1.5SMC SERIES Transient Voltage Su Brightking 1.5SMC47CA datasheet
01-18-2018 1.5SMC51CA 1.5SMC SERIES Transient Voltage Su Brightking 1.5SMC51CA datasheet
01-18-2018 1.5SMC43CA 1.5SMC SERIES Transient Voltage Su Brightking 1.5SMC43CA datasheet
01-18-2018 1.5SMC39CA 1.5SMC SERIES Transient Voltage Su Brightking 1.5SMC39CA datasheet
01-18-2018 1.5SMC36CA 1.5SMC SERIES Transient Voltage Su Brightking 1.5SMC36CA datasheet
01-18-2018 1.5SMC550A 1.5SMC SERIES Transient Voltage Su Brightking 1.5SMC550A datasheet
01-18-2018 1.5SMC530A 1.5SMC SERIES Transient Voltage Su Brightking 1.5SMC530A datasheet
01-18-2018 1.5SMC540A 1.5SMC SERIES Transient Voltage Su Brightking 1.5SMC540A datasheet
01-18-2018 1.5SMC510A 1.5SMC SERIES Transient Voltage Su Brightking 1.5SMC510A datasheet
01-18-2018 1.5SMC480A 1.5SMC SERIES Transient Voltage Su Brightking 1.5SMC480A datasheet
01-18-2018 1.5SMC400A 1.5SMC SERIES Transient Voltage Su Brightking 1.5SMC400A datasheet
01-18-2018 1.5SMC440A 1.5SMC SERIES Transient Voltage Su Brightking 1.5SMC440A datasheet
01-18-2018 1.5SMC300A 1.5SMC SERIES Transient Voltage Su Brightking 1.5SMC300A datasheet
01-18-2018 1.5SMC350A 1.5SMC SERIES Transient Voltage Su Brightking 1.5SMC350A datasheet
01-18-2018 1.5SMC250A 1.5SMC SERIES Transient Voltage Su Brightking 1.5SMC250A datasheet
01-18-2018 1.5SMC220A 1.5SMC SERIES Transient Voltage Su Brightking 1.5SMC220A datasheet
01-18-2018 1.5SMC180A 1.5SMC SERIES Transient Voltage Su Brightking 1.5SMC180A datasheet
01-18-2018 1.5SMC200A 1.5SMC SERIES Transient Voltage Su Brightking 1.5SMC200A datasheet
01-18-2018 1.5SMC170A 1.5SMC SERIES Transient Voltage Su Brightking 1.5SMC170A datasheet
01-18-2018 1.5SMC160A 1.5SMC SERIES Transient Voltage Su Brightking 1.5SMC160A datasheet
01-18-2018 1.5SMC150A 1.5SMC SERIES Transient Voltage Su Brightking 1.5SMC150A datasheet
01-18-2018 1.5SMC120A 1.5SMC SERIES Transient Voltage Su Brightking 1.5SMC120A datasheet
01-18-2018 1.5SMC130A 1.5SMC SERIES Transient Voltage Su Brightking 1.5SMC130A datasheet
01-18-2018 1.5SMC110A 1.5SMC SERIES Transient Voltage Su Brightking 1.5SMC110A datasheet
01-18-2018 1.5SMC100A 1.5SMC SERIES Transient Voltage Su Brightking 1.5SMC100A datasheet
01-18-2018 1.5SMC91A 1.5SMC SERIES Transient Voltage Su Brightking 1.5SMC91A datasheet
01-18-2018 1.5SMC75A 1.5SMC SERIES Transient Voltage Su Brightking 1.5SMC75A datasheet
01-18-2018 1.5SMC82A 1.5SMC SERIES Transient Voltage Su Brightking 1.5SMC82A datasheet
01-18-2018 1.5SMC68A 1.5SMC SERIES Transient Voltage Su Brightking 1.5SMC68A datasheet
01-18-2018 1.5SMC62A 1.5SMC SERIES Transient Voltage Su Brightking 1.5SMC62A datasheet
01-18-2018 1.5SMC51A 1.5SMC SERIES Transient Voltage Su Brightking 1.5SMC51A datasheet
01-18-2018 1.5SMC56A 1.5SMC SERIES Transient Voltage Su Brightking 1.5SMC56A datasheet
01-18-2018 1.5SMC47A 1.5SMC SERIES Transient Voltage Su Brightking 1.5SMC47A datasheet
01-18-2018 1.5SMC22CA 1.5SMC SERIES Transient Voltage Su Brightking 1.5SMC22CA datasheet
01-18-2018 1.5SMC24CA 1.5SMC SERIES Transient Voltage Su Brightking 1.5SMC24CA datasheet
01-18-2018 1.5SMC27CA 1.5SMC SERIES Transient Voltage Su Brightking 1.5SMC27CA datasheet
01-18-2018 1.5SMC30CA 1.5SMC SERIES Transient Voltage Su Brightking 1.5SMC30CA datasheet
01-18-2018 1.5SMC33CA 1.5SMC SERIES Transient Voltage Su Brightking 1.5SMC33CA datasheet
01-18-2018 1.5SMC36A 1.5SMC SERIES Transient Voltage Su Brightking 1.5SMC36A datasheet
01-18-2018 1.5SMC39A 1.5SMC SERIES Transient Voltage Su Brightking 1.5SMC39A datasheet
01-18-2018 1.5SMC43A 1.5SMC SERIES Transient Voltage Su Brightking 1.5SMC43A datasheet
01-18-2018 1.5SMC20CA 1.5SMC SERIES Transient Voltage Su Brightking 1.5SMC20CA datasheet
01-18-2018 1.5SMC16CA 1.5SMC SERIES Transient Voltage Su Brightking 1.5SMC16CA datasheet
01-18-2018 1.5SMC18CA 1.5SMC SERIES Transient Voltage Su Brightking 1.5SMC18CA datasheet
01-18-2018 1.5SMC15CA 1.5SMC SERIES Transient Voltage Su Brightking 1.5SMC15CA datasheet
01-18-2018 1.5SMC13CA 1.5SMC SERIES Transient Voltage Su Brightking 1.5SMC13CA datasheet
01-18-2018 1.5SMC12CA 1.5SMC SERIES Transient Voltage Su Brightking 1.5SMC12CA datasheet
01-18-2018 1.5SMC10CA 1.5SMC SERIES Transient Voltage Su Brightking 1.5SMC10CA datasheet
01-18-2018 1.5SMC11CA 1.5SMC SERIES Transient Voltage Su Brightking 1.5SMC11CA datasheet
01-18-2018 1.5SMC9.1CA 1.5SMC SERIES Transient Voltage Su Brightking 1.5SMC9.1CA datasheet
01-18-2018 1.5SMC8.2CA 1.5SMC SERIES Transient Voltage Su Brightking 1.5SMC8.2CA datasheet
01-18-2018 1.5SMC7.5CA 1.5SMC SERIES Transient Voltage Su Brightking 1.5SMC7.5CA datasheet
01-18-2018 1.5SMC33A 1.5SMC SERIES Transient Voltage Su Brightking 1.5SMC33A datasheet
01-18-2018 1.5SMC6.8CA 1.5SMC SERIES Transient Voltage Su Brightking 1.5SMC6.8CA datasheet
01-18-2018 1.5SMC30A 1.5SMC SERIES Transient Voltage Su Brightking 1.5SMC30A datasheet
01-18-2018 1.5SMC27A 1.5SMC SERIES Transient Voltage Su Brightking 1.5SMC27A datasheet
01-18-2018 1.5SMC24A 1.5SMC SERIES Transient Voltage Su Brightking 1.5SMC24A datasheet
01-18-2018 1.5SMC20A 1.5SMC SERIES Transient Voltage Su Brightking 1.5SMC20A datasheet
01-18-2018 1.5SMC22A 1.5SMC SERIES Transient Voltage Su Brightking 1.5SMC22A datasheet
01-18-2018 1.5SMC18A 1.5SMC SERIES Transient Voltage Su Brightking 1.5SMC18A datasheet
01-18-2018 1.5SMC16A 1.5SMC SERIES Transient Voltage Su Brightking 1.5SMC16A datasheet
01-18-2018 1.5SMC15A 1.5SMC SERIES Transient Voltage Su Brightking 1.5SMC15A datasheet
01-18-2018 1.5SMC12A 1.5SMC SERIES Transient Voltage Su Brightking 1.5SMC12A datasheet
01-18-2018 1.5SMC13A 1.5SMC SERIES Transient Voltage Su Brightking 1.5SMC13A datasheet
01-18-2018 1.5SMC11A 1.5SMC SERIES Transient Voltage Su Brightking 1.5SMC11A datasheet
01-18-2018 1.5SMC10A 1.5SMC SERIES Transient Voltage Su Brightking 1.5SMC10A datasheet
01-18-2018 1.5SMC9.1A 1.5SMC SERIES Transient Voltage Su Brightking 1.5SMC9.1A datasheet
01-18-2018 1.5SMC7.5A 1.5SMC SERIES Transient Voltage Su Brightking 1.5SMC7.5A datasheet
01-18-2018 1.5SMC8.2A 1.5SMC SERIES Transient Voltage Su Brightking 1.5SMC8.2A datasheet
01-18-2018 1.5SMC6.8A 1.5SMC SERIES Transient Voltage Su Brightking 1.5SMC6.8A datasheet
01-18-2018 1.5SMC600CA Surface Mount Transient Voltage Sup SOCAY 1.5SMC600CA datasheet
01-18-2018 1.5SMC550CA Surface Mount Transient Voltage Sup SOCAY 1.5SMC550CA datasheet
01-18-2018 1.5SMC500CA Surface Mount Transient Voltage Sup SOCAY 1.5SMC500CA datasheet
01-18-2018 1.5SMC520CA Surface Mount Transient Voltage Sup SOCAY 1.5SMC520CA datasheet
01-18-2018 1.5SMC440CA Surface Mount Transient Voltage Sup SOCAY 1.5SMC440CA datasheet
01-18-2018 1.5SMC400CA Surface Mount Transient Voltage Sup SOCAY 1.5SMC400CA datasheet
01-18-2018 1.5SMC380CA Surface Mount Transient Voltage Sup SOCAY 1.5SMC380CA datasheet
01-18-2018 1.5SMC350CA Surface Mount Transient Voltage Sup SOCAY 1.5SMC350CA datasheet
01-18-2018 1.5SMC300CA Surface Mount Transient Voltage Sup SOCAY 1.5SMC300CA datasheet
01-18-2018 1.5SMC250CA Surface Mount Transient Voltage Sup SOCAY 1.5SMC250CA datasheet
01-18-2018 1.5SMC200CA Surface Mount Transient Voltage Sup SOCAY 1.5SMC200CA datasheet
01-18-2018 1.5SMC220CA Surface Mount Transient Voltage Sup SOCAY 1.5SMC220CA datasheet
01-18-2018 1.5SMC180CA Surface Mount Transient Voltage Sup SOCAY 1.5SMC180CA datasheet
01-18-2018 1.5SMC170CA Surface Mount Transient Voltage Sup SOCAY 1.5SMC170CA datasheet
01-18-2018 1.5SMC160CA Surface Mount Transient Voltage Sup SOCAY 1.5SMC160CA datasheet
01-18-2018 1.5SMC150CA Surface Mount Transient Voltage Sup SOCAY 1.5SMC150CA datasheet
01-18-2018 1.5SMC120CA Surface Mount Transient Voltage Sup SOCAY 1.5SMC120CA datasheet
01-18-2018 1.5SMC130CA Surface Mount Transient Voltage Sup SOCAY 1.5SMC130CA datasheet
01-18-2018 1.5SMC110CA Surface Mount Transient Voltage Sup SOCAY 1.5SMC110CA datasheet
01-18-2018 1.5SMC100CA Surface Mount Transient Voltage Sup SOCAY 1.5SMC100CA datasheet
01-18-2018 1.5SMC91CA Surface Mount Transient Voltage Sup SOCAY 1.5SMC91CA datasheet
01-18-2018 1.5SMC82CA Surface Mount Transient Voltage Sup SOCAY 1.5SMC82CA datasheet
01-18-2018 1.5SMC68CA Surface Mount Transient Voltage Sup SOCAY 1.5SMC68CA datasheet
01-18-2018 1.5SMC75CA Surface Mount Transient Voltage Sup SOCAY 1.5SMC75CA datasheet
01-18-2018 1.5SMC62CA Surface Mount Transient Voltage Sup SOCAY 1.5SMC62CA datasheet
01-18-2018 1.5SMC56CA Surface Mount Transient Voltage Sup SOCAY 1.5SMC56CA datasheet
01-18-2018 1.5SMC51CA Surface Mount Transient Voltage Sup SOCAY 1.5SMC51CA datasheet
01-18-2018 1.5SMC47CA Surface Mount Transient Voltage Sup SOCAY 1.5SMC47CA datasheet
01-18-2018 1.5SMC39CA Surface Mount Transient Voltage Sup SOCAY 1.5SMC39CA datasheet
01-18-2018 1.5SMC43CA Surface Mount Transient Voltage Sup SOCAY 1.5SMC43CA datasheet
01-18-2018 1.5SMC36CA Surface Mount Transient Voltage Sup SOCAY 1.5SMC36CA datasheet
01-18-2018 1.5SMC33CA Surface Mount Transient Voltage Sup SOCAY 1.5SMC33CA datasheet
01-18-2018 1.5SMC30CA Surface Mount Transient Voltage Sup SOCAY 1.5SMC30CA datasheet
01-18-2018 1.5SMC27CA Surface Mount Transient Voltage Sup SOCAY 1.5SMC27CA datasheet
01-18-2018 1.5SMC8.2CA Surface Mount Transient Voltage Sup SOCAY 1.5SMC8.2CA datasheet
01-18-2018 1.5SMC9.1CA Surface Mount Transient Voltage Sup SOCAY 1.5SMC9.1CA datasheet
01-18-2018 1.5SMC10CA Surface Mount Transient Voltage Sup SOCAY 1.5SMC10CA datasheet
01-18-2018 1.5SMC11CA Surface Mount Transient Voltage Sup SOCAY 1.5SMC11CA datasheet
01-18-2018 1.5SMC12CA Surface Mount Transient Voltage Sup SOCAY 1.5SMC12CA datasheet
01-18-2018 1.5SMC13CA Surface Mount Transient Voltage Sup SOCAY 1.5SMC13CA datasheet
01-18-2018 1.5SMC15CA Surface Mount Transient Voltage Sup SOCAY 1.5SMC15CA datasheet
01-18-2018 1.5SMC16CA Surface Mount Transient Voltage Sup SOCAY 1.5SMC16CA datasheet
01-18-2018 1.5SMC18CA Surface Mount Transient Voltage Sup SOCAY 1.5SMC18CA datasheet
01-18-2018 1.5SMC20CA Surface Mount Transient Voltage Sup SOCAY 1.5SMC20CA datasheet
01-18-2018 1.5SMC22CA Surface Mount Transient Voltage Sup SOCAY 1.5SMC22CA datasheet
01-18-2018 1.5SMC24CA Surface Mount Transient Voltage Sup SOCAY 1.5SMC24CA datasheet
01-18-2018 1.5SMC7.5CA Surface Mount Transient Voltage Sup SOCAY 1.5SMC7.5CA datasheet
01-18-2018 1.5SMC6.8CA Surface Mount Transient Voltage Sup SOCAY 1.5SMC6.8CA datasheet
01-18-2018 1.5SMC120A Surface Mount Transient Voltage Sup SOCAY 1.5SMC120A datasheet
01-18-2018 1.5SMC130A Surface Mount Transient Voltage Sup SOCAY 1.5SMC130A datasheet
01-18-2018 1.5SMC150A Surface Mount Transient Voltage Sup SOCAY 1.5SMC150A datasheet
01-18-2018 1.5SMC160A Surface Mount Transient Voltage Sup SOCAY 1.5SMC160A datasheet
01-18-2018 1.5SMC170A Surface Mount Transient Voltage Sup SOCAY 1.5SMC170A datasheet
01-18-2018 1.5SMC180A Surface Mount Transient Voltage Sup SOCAY 1.5SMC180A datasheet
01-18-2018 1.5SMC200A Surface Mount Transient Voltage Sup SOCAY 1.5SMC200A datasheet
01-18-2018 1.5SMC220A Surface Mount Transient Voltage Sup SOCAY 1.5SMC220A datasheet
01-18-2018 1.5SMC250A Surface Mount Transient Voltage Sup SOCAY 1.5SMC250A datasheet
01-18-2018 1.5SMC300A Surface Mount Transient Voltage Sup SOCAY 1.5SMC300A datasheet
01-18-2018 1.5SMC550A Surface Mount Transient Voltage Sup SOCAY 1.5SMC550A datasheet
01-18-2018 1.5SMC600A Surface Mount Transient Voltage Sup SOCAY 1.5SMC600A datasheet
01-18-2018 1.5SMC520A Surface Mount Transient Voltage Sup SOCAY 1.5SMC520A datasheet
01-18-2018 1.5SMC500A Surface Mount Transient Voltage Sup SOCAY 1.5SMC500A datasheet
01-18-2018 1.5SMC440A Surface Mount Transient Voltage Sup SOCAY 1.5SMC440A datasheet
01-18-2018 1.5SMC400A Surface Mount Transient Voltage Sup SOCAY 1.5SMC400A datasheet
01-18-2018 1.5SMC380A Surface Mount Transient Voltage Sup SOCAY 1.5SMC380A datasheet
01-18-2018 1.5SMC350A Surface Mount Transient Voltage Sup SOCAY 1.5SMC350A datasheet
01-18-2018 1.5SMC110A Surface Mount Transient Voltage Sup SOCAY 1.5SMC110A datasheet
01-18-2018 1.5SMC100A Surface Mount Transient Voltage Sup SOCAY 1.5SMC100A datasheet
01-18-2018 1.5SMC91A Surface Mount Transient Voltage Sup SOCAY 1.5SMC91A datasheet
01-18-2018 1.5SMC82A Surface Mount Transient Voltage Sup SOCAY 1.5SMC82A datasheet
01-18-2018 1.5SMC68A Surface Mount Transient Voltage Sup SOCAY 1.5SMC68A datasheet
01-18-2018 1.5SMC75A Surface Mount Transient Voltage Sup SOCAY 1.5SMC75A datasheet
01-18-2018 1.5SMC62A Surface Mount Transient Voltage Sup SOCAY 1.5SMC62A datasheet
01-18-2018 1.5SMC56A Surface Mount Transient Voltage Sup SOCAY 1.5SMC56A datasheet
01-18-2018 1.5SMC51A Surface Mount Transient Voltage Sup SOCAY 1.5SMC51A datasheet
01-18-2018 1.5SMC47A Surface Mount Transient Voltage Sup SOCAY 1.5SMC47A datasheet
01-18-2018 1.5SMC39A Surface Mount Transient Voltage Sup SOCAY 1.5SMC39A datasheet
01-18-2018 1.5SMC43A Surface Mount Transient Voltage Sup SOCAY 1.5SMC43A datasheet
01-18-2018 1.5SMC36A Surface Mount Transient Voltage Sup SOCAY 1.5SMC36A datasheet
01-18-2018 1.5SMC33A Surface Mount Transient Voltage Sup SOCAY 1.5SMC33A datasheet
01-18-2018 1.5SMC30A Surface Mount Transient Voltage Sup SOCAY 1.5SMC30A datasheet
01-18-2018 1.5SMC27A Surface Mount Transient Voltage Sup SOCAY 1.5SMC27A datasheet
01-18-2018 1.5SMC22A Surface Mount Transient Voltage Sup SOCAY 1.5SMC22A datasheet
01-18-2018 1.5SMC24A Surface Mount Transient Voltage Sup SOCAY 1.5SMC24A datasheet
01-18-2018 1.5SMC20A Surface Mount Transient Voltage Sup SOCAY 1.5SMC20A datasheet
01-18-2018 1.5SMC18A Surface Mount Transient Voltage Sup SOCAY 1.5SMC18A datasheet
01-18-2018 1.5SMC16A Surface Mount Transient Voltage Sup SOCAY 1.5SMC16A datasheet
01-18-2018 1.5SMC15A Surface Mount Transient Voltage Sup SOCAY 1.5SMC15A datasheet
01-18-2018 1.5SMC12A Surface Mount Transient Voltage Sup SOCAY 1.5SMC12A datasheet
01-18-2018 1.5SMC13A Surface Mount Transient Voltage Sup SOCAY 1.5SMC13A datasheet
01-18-2018 1.5SMC11A Surface Mount Transient Voltage Sup SOCAY 1.5SMC11A datasheet
01-18-2018 1.5SMC10A Surface Mount Transient Voltage Sup SOCAY 1.5SMC10A datasheet
01-18-2018 1.5SMC9.1A Surface Mount Transient Voltage Sup SOCAY 1.5SMC9.1A datasheet
01-18-2018 1.5SMC8.2A Surface Mount Transient Voltage Sup SOCAY 1.5SMC8.2A datasheet
01-18-2018 1.5SMC6.8A Surface Mount Transient Voltage Sup SOCAY 1.5SMC6.8A datasheet
01-18-2018 1.5SMC7.5A Surface Mount Transient Voltage Sup SOCAY 1.5SMC7.5A datasheet
01-18-2018 MJE13003DI3 MJE13003DI3 Rev.E Mar.-2016 DATA S BLUE ROCKET ELECTRONICS MJE13003DI3 datasheet
01-18-2018 BRGBU2502SF BRGBU2502SF Rev.D Oct.-2015 DATA S BLUE ROCKET ELECTRONICS BRGBU2502SF datasheet
01-18-2018 TB10S-15 TB1S-15~TB10S-15 Rev.C Feb.-2015 BLUE ROCKET ELECTRONICS TB10S-15 datasheet
01-18-2018 TB8S-15 TB1S-15~TB10S-15 Rev.C Feb.-2015 BLUE ROCKET ELECTRONICS TB8S-15 datasheet
01-18-2018 TB6S-15 TB1S-15~TB10S-15 Rev.C Feb.-2015 BLUE ROCKET ELECTRONICS TB6S-15 datasheet
01-18-2018 TB4S-15 TB1S-15~TB10S-15 Rev.C Feb.-2015 BLUE ROCKET ELECTRONICS TB4S-15 datasheet
01-18-2018 TB2S-15 TB1S-15~TB10S-15 Rev.C Feb.-2015 BLUE ROCKET ELECTRONICS TB2S-15 datasheet
01-18-2018 TB1S-15 TB1S-15~TB10S-15 Rev.C Feb.-2015 BLUE ROCKET ELECTRONICS TB1S-15 datasheet
01-18-2018 TB10S-10 TB1S-10~TB10S-10 Rev.C Feb.-2015 BLUE ROCKET ELECTRONICS TB10S-10 datasheet
01-18-2018 TB8S-10 TB1S-10~TB10S-10 Rev.C Feb.-2015 BLUE ROCKET ELECTRONICS TB8S-10 datasheet
01-18-2018 TB6S-10 TB1S-10~TB10S-10 Rev.C Feb.-2015 BLUE ROCKET ELECTRONICS TB6S-10 datasheet
01-18-2018 TB4S-10 TB1S-10~TB10S-10 Rev.C Feb.-2015 BLUE ROCKET ELECTRONICS TB4S-10 datasheet
01-18-2018 TB2S-10 TB1S-10~TB10S-10 Rev.C Feb.-2015 BLUE ROCKET ELECTRONICS TB2S-10 datasheet
01-18-2018 TB1S-10 BLUE ROCKET ELECTRONICS TB1S-10 datasheet
01-18-2018 ABS210 ABS201~ABS210 Rev.C Feb.-2015 描 BLUE ROCKET ELECTRONICS ABS210 datasheet
01-18-2018 ABS208 ABS201~ABS210 Rev.C Feb.-2015 描 BLUE ROCKET ELECTRONICS ABS208 datasheet
01-18-2018 ABS206 ABS201~ABS210 Rev.C Feb.-2015 描 BLUE ROCKET ELECTRONICS ABS206 datasheet
01-18-2018 ABS204 ABS201~ABS210 Rev.C Feb.-2015 描 BLUE ROCKET ELECTRONICS ABS204 datasheet
01-18-2018 ABS202 ABS201~ABS210 Rev.C Feb.-2015 描 BLUE ROCKET ELECTRONICS ABS202 datasheet
01-18-2018 ABS201 ABS201~ABS210 Rev.C Feb.-2015 描 BLUE ROCKET ELECTRONICS ABS201 datasheet
01-18-2018 ABS10 ABS1~ABS10 Rev.C Feb.-2015 描述 / BLUE ROCKET ELECTRONICS ABS10 datasheet
01-18-2018 ABS8 ABS1~ABS10 Rev.C Feb.-2015 描述 / BLUE ROCKET ELECTRONICS ABS8 datasheet
01-18-2018 ABS6 ABS1~ABS10 Rev.C Feb.-2015 描述 / BLUE ROCKET ELECTRONICS ABS6 datasheet
01-18-2018 FTB10F-20 FTB10F-20 Rev.C Feb.-2015 描述 / BLUE ROCKET ELECTRONICS FTB10F-20 datasheet
01-18-2018 ABS1 ABS1~ABS10 Rev.C Feb.-2015 描述 / BLUE ROCKET ELECTRONICS ABS1 datasheet
01-18-2018 ABS2 ABS1~ABS10 Rev.C Feb.-2015 描述 / BLUE ROCKET ELECTRONICS ABS2 datasheet
01-18-2018 ABS4 ABS1~ABS10 Rev.C Feb.-2015 描述 / BLUE ROCKET ELECTRONICS ABS4 datasheet
01-18-2018 FTB10F-15 FTB10F-15 Rev.C Feb.-2015 描述 / BLUE ROCKET ELECTRONICS FTB10F-15 datasheet
01-18-2018 FTB10F-12 FTB10F-12 Rev.C Feb.-2015 描述 / BLUE ROCKET ELECTRONICS FTB10F-12 datasheet
01-18-2018 FTB10F-10 FTB10F-10 Rev.C Feb.-2015 描述 / BLUE ROCKET ELECTRONICS FTB10F-10 datasheet
01-18-2018 BRG60N65D BRG60N65D Rev.D Oct.-2015 DATA SHE BLUE ROCKET ELECTRONICS BRG60N65D datasheet
01-18-2018 BRG15N120D BRG15N120D Rev.D Oct.-2015 DATA SH BLUE ROCKET ELECTRONICS BRG15N120D datasheet
01-18-2018 BRG10N120D BLUE ROCKET ELECTRONICS BRG10N120D datasheet
01-18-2018 MJE13009ZJ MJE13009ZJ Rev.E Mar.-2016 DATA SH BLUE ROCKET ELECTRONICS MJE13009ZJ datasheet
01-18-2018 MJE13007VJ MJE13007VJ Rev.E Mar.-2016 DATA SH BLUE ROCKET ELECTRONICS MJE13007VJ datasheet
01-18-2018 MJE13005DQ4 MJE13005DQ4 Rev.E May.-2016 DATA S BLUE ROCKET ELECTRONICS MJE13005DQ4 datasheet
01-18-2018 MJE13003K4 MJE13003K4 Rev.E May.-2016 DATA SH BLUE ROCKET ELECTRONICS MJE13003K4 datasheet
01-18-2018 MJE13003DK3 MJE13003DK3 Rev.E Mar.-2016 DATA S BLUE ROCKET ELECTRONICS MJE13003DK3 datasheet
01-18-2018 MJE13003H3 MJE13003H3 Rev.E Mar.-2016 DATA SH BLUE ROCKET ELECTRONICS MJE13003H3 datasheet
01-18-2018 MJE13003K3 MJE13003K3 Rev.E Mar.-2016 DATA SH BLUE ROCKET ELECTRONICS MJE13003K3 datasheet
01-18-2018 MJE13003L3 MJE13003L3 Rev.F Mar.-2016 DATA SH BLUE ROCKET ELECTRONICS MJE13003L3 datasheet
01-18-2018 MJE13003M3 MJE13003M3 Rev.E Mar.-2016 DATA SH BLUE ROCKET ELECTRONICS MJE13003M3 datasheet
01-18-2018 MJE13003VK3 MJE13003VK3 Rev.E Mar.-2016 DATA S BLUE ROCKET ELECTRONICS MJE13003VK3 datasheet
01-18-2018 MJE13004P3 BLUE ROCKET ELECTRONICS MJE13004P3 datasheet
01-18-2018 MJE13009X8 MJE13009X8 Rev.E Mar.-2016 DATA SH BLUE ROCKET ELECTRONICS MJE13009X8 datasheet
01-18-2018 MJE13005DQ3 MJE13005DQ3 Rev.E Mar.-2016 DATA S BLUE ROCKET ELECTRONICS MJE13005DQ3 datasheet
01-18-2018 MJE13005DT3 MJE13005DT3 Rev.E Mar.-2016 DATA S BLUE ROCKET ELECTRONICS MJE13005DT3 datasheet
01-18-2018 BLD128DD BLD128DD Rev.E May.-2016 DATA SHEE BLUE ROCKET ELECTRONICS BLD128DD datasheet
01-18-2018 MJE13009Z8 MJE13009Z8 Rev.E Mar.-2016 DATA SH BLUE ROCKET ELECTRONICS MJE13009Z8 datasheet
01-18-2018 MJE13007X8 MJE13007X8 Rev.E Mar.-2016 DATA SH BLUE ROCKET ELECTRONICS MJE13007X8 datasheet
01-18-2018 MJE13007V8 MJE13007V8 Rev.E Mar.-2016 DATA SH BLUE ROCKET ELECTRONICS MJE13007V8 datasheet
01-18-2018 MJE13005T8 MJE13005T8 Rev.E Mar.-2016 DATA SH BLUE ROCKET ELECTRONICS MJE13005T8 datasheet
01-18-2018 MJE13005Q8 MJE13005Q8 Rev.E Mar.-2016 DATA SH BLUE ROCKET ELECTRONICS MJE13005Q8 datasheet
01-18-2018 MJE13005P8 MJE13005P8 Rev.E Mar.-2016 DATA SH BLUE ROCKET ELECTRONICS MJE13005P8 datasheet
01-18-2018 MJE13005DQ8 MJE13005DQ8 Rev.E Mar.-2016 DATA S BLUE ROCKET ELECTRONICS MJE13005DQ8 datasheet
01-18-2018 MJE13005DR8 MJE13005DR8 Rev.E Mar.-2016 DATA S BLUE ROCKET ELECTRONICS MJE13005DR8 datasheet
01-18-2018 MJE13003N8 MJE13003N8 Rev.E Mar.-2016 DATA SH BLUE ROCKET ELECTRONICS MJE13003N8 datasheet
01-18-2018 MJE13003M8 MJE13003M8 Rev.E Mar.-2016 DATA SH BLUE ROCKET ELECTRONICS MJE13003M8 datasheet
01-18-2018 MJE13003K8 MJE13003K8 Rev.E Mar.-2016 DATA SH BLUE ROCKET ELECTRONICS MJE13003K8 datasheet
01-18-2018 BUL128DR8 BUL128DR8 Rev.E Mar.-2016 DATA SHE BLUE ROCKET ELECTRONICS BUL128DR8 datasheet
01-18-2018 MJE13009Z7 MJE13009Z7 Rev.E Mar.-2016 DATA SH BLUE ROCKET ELECTRONICS MJE13009Z7 datasheet
01-18-2018 MJE13009X7 MJE13009X7 Rev.E Mar.-2016 DATA SH BLUE ROCKET ELECTRONICS MJE13009X7 datasheet
01-18-2018 MJE13007X7 MJE13007X7 Rev.E Mar.-2016 DATA SH BLUE ROCKET ELECTRONICS MJE13007X7 datasheet
01-18-2018 MJE13007V7 MJE13007V7 Rev.F Mar.-2016 DATA SH BLUE ROCKET ELECTRONICS MJE13007V7 datasheet
01-18-2018 MJE13007HV7 MJE13007HV7 Rev.E Mar.-2016 DATA S BLUE ROCKET ELECTRONICS MJE13007HV7 datasheet
01-18-2018 MJE13005VT7 MJE13005VT7 Rev.E Mar.-2016 DATA S BLUE ROCKET ELECTRONICS MJE13005VT7 datasheet
01-18-2018 MJE13005T7 MJE13005T7 Rev.F Mar.-2016 DATA SH BLUE ROCKET ELECTRONICS MJE13005T7 datasheet
01-18-2018 MJE13005Q7 MJE13005Q7 Rev.E Mar.-2016 DATA SH BLUE ROCKET ELECTRONICS MJE13005Q7 datasheet
01-18-2018 MJE13005P7 MJE13005P7 Rev.E Mar.-2016 DATA SH BLUE ROCKET ELECTRONICS MJE13005P7 datasheet
01-18-2018 MJE13005LP7 MJE13005LP7 Rev.E Mar.-2016 DATA S BLUE ROCKET ELECTRONICS MJE13005LP7 datasheet
01-18-2018 MJE13005DT7 MJE13005DT7 Rev.F Mar.-2016 DATA S BLUE ROCKET ELECTRONICS MJE13005DT7 datasheet
01-18-2018 MJE13005DR7 MJE13005DR7 Rev.E Mar.-2016 DATA S BLUE ROCKET ELECTRONICS MJE13005DR7 datasheet
01-18-2018 MJE13005DQ7 MJE13005DQ7 Rev.E Mar.-2016 DATA S BLUE ROCKET ELECTRONICS MJE13005DQ7 datasheet
01-18-2018 MJE13005DP7 MJE13005DP7 Rev.E Mar.-2016 DATA S BLUE ROCKET ELECTRONICS MJE13005DP7 datasheet
01-18-2018 MJE13003VN7 MJE13003VN7 Rev.E Mar.-2016 DATA S BLUE ROCKET ELECTRONICS MJE13003VN7 datasheet
01-18-2018 MJE13002I7 MJE13002I7 Rev.E Mar.-2016 DATA SH BLUE ROCKET ELECTRONICS MJE13002I7 datasheet
01-18-2018 MJE13003DK7 MJE13003DK7 Rev.E Mar.-2016 DATA S BLUE ROCKET ELECTRONICS MJE13003DK7 datasheet
01-18-2018 MJE13003DN7 MJE13003DN7 Rev.E Mar.-2016 DATA S BLUE ROCKET ELECTRONICS MJE13003DN7 datasheet
01-18-2018 MJE13003I7 MJE13003I7 Rev.E Mar.-2016 DATA SH BLUE ROCKET ELECTRONICS MJE13003I7 datasheet
01-18-2018 MJE13003K7 MJE13003K7 Rev.E Mar.-2016 DATA SH BLUE ROCKET ELECTRONICS MJE13003K7 datasheet
01-18-2018 MJE13003M7 MJE13003M7 Rev.E Mar.-2016 DATA SH BLUE ROCKET ELECTRONICS MJE13003M7 datasheet
01-18-2018 MJE13003N7 MJE13003N7 Rev.E Mar.-2016 DATA SH BLUE ROCKET ELECTRONICS MJE13003N7 datasheet
01-18-2018 MJE13003VK7 MJE13003VK7 Rev.E Mar.-2016 DATA S BLUE ROCKET ELECTRONICS MJE13003VK7 datasheet
01-18-2018 BUL742 BUL742 Rev.E Mar.-2016 DATA SHEET BLUE ROCKET ELECTRONICS BUL742 datasheet
01-18-2018 BUL5555 BUL5555 Rev.E Mar.-2016 DATA SHEET BLUE ROCKET ELECTRONICS BUL5555 datasheet
01-18-2018 BLD128DA BLD128DA Rev.E Mar.-2016 DATA SHEE BLUE ROCKET ELECTRONICS BLD128DA datasheet
01-18-2018 BUL128DR7 BUL128DR7 Rev.E Mar.-2016 DATA SHE BLUE ROCKET ELECTRONICS BUL128DR7 datasheet
01-18-2018 BLD128D BLD128D Rev.E Mar.-2016 DATA SHEET BLUE ROCKET ELECTRONICS BLD128D datasheet
01-18-2018 1.5SMC550CA Transient Voltage Suppressors DO-21 MERITEK 1.5SMC550CA datasheet
01-18-2018 1.5SMC530CA Transient Voltage Suppressors DO-21 MERITEK 1.5SMC530CA datasheet
01-18-2018 1.5SMC540CA Transient Voltage Suppressors DO-21 MERITEK 1.5SMC540CA datasheet
01-18-2018 1.5SMC510CA Transient Voltage Suppressors DO-21 MERITEK 1.5SMC510CA datasheet
01-18-2018 1.5SMC480CA Transient Voltage Suppressors DO-21 MERITEK 1.5SMC480CA datasheet
01-18-2018 1.5SMC400CA Transient Voltage Suppressors DO-21 MERITEK 1.5SMC400CA datasheet
01-18-2018 1.5SMC440CA Transient Voltage Suppressors DO-21 MERITEK 1.5SMC440CA datasheet
01-18-2018 1.5SMC350CA Transient Voltage Suppressors DO-21 MERITEK 1.5SMC350CA datasheet
01-18-2018 1.5SMC300CA Transient Voltage Suppressors DO-21 MERITEK 1.5SMC300CA datasheet
01-18-2018 1.5SMC130CA Transient Voltage Suppressors DO-21 MERITEK 1.5SMC130CA datasheet
01-18-2018 1.5SMC150CA Transient Voltage Suppressors DO-21 MERITEK 1.5SMC150CA datasheet
01-18-2018 1.5SMC160CA Transient Voltage Suppressors DO-21 MERITEK 1.5SMC160CA datasheet
01-18-2018 1.5SMC170CA Transient Voltage Suppressors DO-21 MERITEK 1.5SMC170CA datasheet
01-18-2018 1.5SMC180CA Transient Voltage Suppressors DO-21 MERITEK 1.5SMC180CA datasheet
01-18-2018 1.5SMC200CA Transient Voltage Suppressors DO-21 MERITEK 1.5SMC200CA datasheet
01-18-2018 1.5SMC220CA Transient Voltage Suppressors DO-21 MERITEK 1.5SMC220CA datasheet
01-18-2018 1.5SMC250CA Transient Voltage Suppressors DO-21 MERITEK 1.5SMC250CA datasheet
01-18-2018 1.5SMC30CA Transient Voltage Suppressors DO-21 MERITEK 1.5SMC30CA datasheet
01-18-2018 1.5SMC33CA Transient Voltage Suppressors DO-21 MERITEK 1.5SMC33CA datasheet
01-18-2018 1.5SMC36CA Transient Voltage Suppressors DO-21 MERITEK 1.5SMC36CA datasheet
01-18-2018 1.5SMC39CA Transient Voltage Suppressors DO-21 MERITEK 1.5SMC39CA datasheet
01-18-2018 1.5SMC43CA Transient Voltage Suppressors DO-21 MERITEK 1.5SMC43CA datasheet
01-18-2018 1.5SMC47CA Transient Voltage Suppressors DO-21 MERITEK 1.5SMC47CA datasheet
01-18-2018 1.5SMC51CA Transient Voltage Suppressors DO-21 MERITEK 1.5SMC51CA datasheet
01-18-2018 1.5SMC56CA Transient Voltage Suppressors DO-21 MERITEK 1.5SMC56CA datasheet
01-18-2018 1.5SMC62CA Transient Voltage Suppressors DO-21 MERITEK 1.5SMC62CA datasheet
01-18-2018 1.5SMC68CA Transient Voltage Suppressors DO-21 MERITEK 1.5SMC68CA datasheet
01-18-2018 1.5SMC75CA Transient Voltage Suppressors DO-21 MERITEK 1.5SMC75CA datasheet
01-18-2018 1.5SMC82CA Transient Voltage Suppressors DO-21 MERITEK 1.5SMC82CA datasheet
01-18-2018 1.5SMC91CA Transient Voltage Suppressors DO-21 MERITEK 1.5SMC91CA datasheet
01-18-2018 1.5SMC100CA Transient Voltage Suppressors DO-21 MERITEK 1.5SMC100CA datasheet
01-18-2018 1.5SMC110CA Transient Voltage Suppressors DO-21 MERITEK 1.5SMC110CA datasheet
01-18-2018 1.5SMC120CA Transient Voltage Suppressors DO-21 MERITEK 1.5SMC120CA datasheet
01-18-2018 1.5SMC27CA Transient Voltage Suppressors DO-21 MERITEK 1.5SMC27CA datasheet
01-18-2018 1.5SMC22CA Transient Voltage Suppressors DO-21 MERITEK 1.5SMC22CA datasheet
01-18-2018 1.5SMC24CA Transient Voltage Suppressors DO-21 MERITEK 1.5SMC24CA datasheet
01-18-2018 1.5SMC20CA Transient Voltage Suppressors DO-21 MERITEK 1.5SMC20CA datasheet
01-18-2018 1.5SMC16CA Transient Voltage Suppressors DO-21 MERITEK 1.5SMC16CA datasheet
01-18-2018 1.5SMC18CA Transient Voltage Suppressors DO-21 MERITEK 1.5SMC18CA datasheet
01-18-2018 1.5SMC550A Transient Voltage Suppressors DO-21 MERITEK 1.5SMC550A datasheet
01-18-2018 1.5SMC530A Transient Voltage Suppressors DO-21 MERITEK 1.5SMC530A datasheet
01-18-2018 1.5SMC540A Transient Voltage Suppressors DO-21 MERITEK 1.5SMC540A datasheet
01-18-2018 1.5SMC510A Transient Voltage Suppressors DO-21 MERITEK 1.5SMC510A datasheet
01-18-2018 1.5SMC440A Transient Voltage Suppressors DO-21 MERITEK 1.5SMC440A datasheet
01-18-2018 1.5SMC480A Transient Voltage Suppressors DO-21 MERITEK 1.5SMC480A datasheet
01-18-2018 1.5SMC400A Transient Voltage Suppressors DO-21 MERITEK 1.5SMC400A datasheet
01-18-2018 1.5SMC300A Transient Voltage Suppressors DO-21 MERITEK 1.5SMC300A datasheet
01-18-2018 1.5SMC350A Transient Voltage Suppressors DO-21 MERITEK 1.5SMC350A datasheet
01-18-2018 1.5SMC250A Transient Voltage Suppressors DO-21 MERITEK 1.5SMC250A datasheet
01-18-2018 1.5SMC200A Transient Voltage Suppressors DO-21 MERITEK 1.5SMC200A datasheet
01-18-2018 1.5SMC220A Transient Voltage Suppressors DO-21 MERITEK 1.5SMC220A datasheet
01-18-2018 1.5SMC180A Transient Voltage Suppressors DO-21 MERITEK 1.5SMC180A datasheet
01-18-2018 1.5SMC150A Transient Voltage Suppressors DO-21 MERITEK 1.5SMC150A datasheet
01-18-2018 1.5SMC160A Transient Voltage Suppressors DO-21 MERITEK 1.5SMC160A datasheet
01-18-2018 1.5SMC170A Transient Voltage Suppressors DO-21 MERITEK 1.5SMC170A datasheet
01-18-2018 R3131N42EA  R3130NxxB/D/H (SOT23-3) are the RICOH R3131N42EA datasheet
01-18-2018 1.5SMC130A Transient Voltage Suppressors DO-21 MERITEK 1.5SMC130A datasheet
01-18-2018 1.5SMC110A Transient Voltage Suppressors DO-21 MERITEK 1.5SMC110A datasheet
01-18-2018 1.5SMC120A Transient Voltage Suppressors DO-21 MERITEK 1.5SMC120A datasheet
01-18-2018 1.5SM100A Transient Voltage Suppressors DO-21 MERITEK 1.5SM100A datasheet
01-18-2018 1.5SMC82A Transient Voltage Suppressors DO-21 MERITEK 1.5SMC82A datasheet
01-18-2018 1.5SMC91A Transient Voltage Suppressors DO-21 MERITEK 1.5SMC91A datasheet
01-18-2018 1.5SMC75A Transient Voltage Suppressors DO-21 MERITEK 1.5SMC75A datasheet
01-18-2018 1.5SMC62A Transient Voltage Suppressors DO-21 MERITEK 1.5SMC62A datasheet
01-18-2018 1.5SMC68A Transient Voltage Suppressors DO-21 MERITEK 1.5SMC68A datasheet
01-18-2018 1.5SMC56A Transient Voltage Suppressors DO-21 MERITEK 1.5SMC56A datasheet
01-18-2018 1.5SMC47A Transient Voltage Suppressors DO-21 MERITEK 1.5SMC47A datasheet
01-18-2018 1.5SMC51A Transient Voltage Suppressors DO-21 MERITEK 1.5SMC51A datasheet
01-18-2018 1.5SMC43A Transient Voltage Suppressors DO-21 MERITEK 1.5SMC43A datasheet
01-18-2018 1.5SMC36A Transient Voltage Suppressors DO-21 MERITEK 1.5SMC36A datasheet
01-18-2018 1.5SMC39A Transient Voltage Suppressors DO-21 MERITEK 1.5SMC39A datasheet
01-18-2018 1.5SMC33A Transient Voltage Suppressors DO-21 MERITEK 1.5SMC33A datasheet
01-18-2018 1.5SMC27A Transient Voltage Suppressors DO-21 MERITEK 1.5SMC27A datasheet
01-18-2018 1.5SMC30A Transient Voltage Suppressors DO-21 MERITEK 1.5SMC30A datasheet
01-18-2018 1.5SMC24A Transient Voltage Suppressors DO-21 MERITEK 1.5SMC24A datasheet
01-18-2018 1.5SMC20A Transient Voltage Suppressors DO-21 MERITEK 1.5SMC20A datasheet
01-18-2018 1.5SMC22A Transient Voltage Suppressors DO-21 MERITEK 1.5SMC22A datasheet
01-18-2018 1.5SMC18A Transient Voltage Suppressors DO-21 MERITEK 1.5SMC18A datasheet
01-18-2018 1.5SMC15CA Transient Voltage Suppressors DO-21 MERITEK 1.5SMC15CA datasheet
01-18-2018 1.5SMC16A Transient Voltage Suppressors DO-21 MERITEK 1.5SMC16A datasheet
01-18-2018 1.5SMC13CA Transient Voltage Suppressors DO-21 MERITEK 1.5SMC13CA datasheet
01-18-2018 1.5SMC11CA Transient Voltage Suppressors DO-21 MERITEK 1.5SMC11CA datasheet
01-18-2018 1.5SMC12CA Transient Voltage Suppressors DO-21 MERITEK 1.5SMC12CA datasheet
01-18-2018 1.5SMC10CA Transient Voltage Suppressors DO-21 MERITEK 1.5SMC10CA datasheet
01-18-2018 1.5SMC8.2CA Transient Voltage Suppressors DO-21 MERITEK 1.5SMC8.2CA datasheet
01-18-2018 1.5SMC9.1CA Transient Voltage Suppressors DO-21 MERITEK 1.5SMC9.1CA datasheet
01-18-2018 1.5SMC7.5CA Transient Voltage Suppressors DO-21 MERITEK 1.5SMC7.5CA datasheet
01-18-2018 1.5SMC15A Transient Voltage Suppressors DO-21 MERITEK 1.5SMC15A datasheet
01-18-2018 1.5SMC6.8CA Transient Voltage Suppressors DO-21 MERITEK 1.5SMC6.8CA datasheet
01-18-2018 1.5SMC13A Transient Voltage Suppressors DO-21 MERITEK 1.5SMC13A datasheet
01-18-2018 1.5SMC11A Transient Voltage Suppressors DO-21 MERITEK 1.5SMC11A datasheet
01-18-2018 1.5SMC12A Transient Voltage Suppressors DO-21 MERITEK 1.5SMC12A datasheet
01-18-2018 1.5SMC10A Transient Voltage Suppressors DO-21 MERITEK 1.5SMC10A datasheet
01-18-2018 1.5SMC8.2A Transient Voltage Suppressors DO-21 MERITEK 1.5SMC8.2A datasheet
01-18-2018 1.5SMC9.1A Transient Voltage Suppressors DO-21 MERITEK 1.5SMC9.1A datasheet
01-18-2018 1.5SMC7.5A Transient Voltage Suppressors DO-21 MERITEK 1.5SMC7.5A datasheet
01-18-2018 1.5SMC550CA Document: W0301017, Rev: B Feature WAYON 1.5SMC550CA datasheet
01-18-2018 1.5SMC6.8A Transient Voltage Suppressors DO-21 MERITEK 1.5SMC6.8A datasheet
01-18-2018 1.5SMC540CA Document: W0301017, Rev: B Feature WAYON 1.5SMC540CA datasheet
01-18-2018 1.5SMC510CA Document: W0301017, Rev: B Feature WAYON 1.5SMC510CA datasheet
01-18-2018 1.5SMC530CA Document: W0301017, Rev: B Feature WAYON 1.5SMC530CA datasheet
01-18-2018 1.5SMC480CA Document: W0301017, Rev: B Feature WAYON 1.5SMC480CA datasheet
01-18-2018 1.5SMC400CA Document: W0301017, Rev: B Feature WAYON 1.5SMC400CA datasheet
01-18-2018 1.5SMC440CA Document: W0301017, Rev: B Feature WAYON 1.5SMC440CA datasheet
01-18-2018 1.5SMC350CA Document: W0301017, Rev: B Feature WAYON 1.5SMC350CA datasheet
01-18-2018 1.5SMC250CA Document: W0301017, Rev: B Feature WAYON 1.5SMC250CA datasheet
01-18-2018 1.5SMC300CA Document: W0301017, Rev: B Feature WAYON 1.5SMC300CA datasheet
01-18-2018 1.5SMC220CA Document: W0301017, Rev: B Feature WAYON 1.5SMC220CA datasheet
01-18-2018 1.5SMC180CA Document: W0301017, Rev: B Feature WAYON 1.5SMC180CA datasheet
01-18-2018 1.5SMC200CA Document: W0301017, Rev: B Feature WAYON 1.5SMC200CA datasheet
01-18-2018 1.5SMC170CA Document: W0301017, Rev: B Feature WAYON 1.5SMC170CA datasheet
01-18-2018 1.5SMC150CA Document: W0301017, Rev: B Feature WAYON 1.5SMC150CA datasheet
01-18-2018 1.5SMC160CA Document: W0301017, Rev: B Feature WAYON 1.5SMC160CA datasheet
01-18-2018 1.5SMC130CA Document: W0301017, Rev: B Feature WAYON 1.5SMC130CA datasheet
01-18-2018 1.5SMC110CA Document: W0301017, Rev: B Feature WAYON 1.5SMC110CA datasheet
01-18-2018 1.5SMC120CA Document: W0301017, Rev: B Feature WAYON 1.5SMC120CA datasheet
01-18-2018 1.5SMC100CA Document: W0301017, Rev: B Feature WAYON 1.5SMC100CA datasheet
01-18-2018 1.5SMC82CA Document: W0301017, Rev: B Feature WAYON 1.5SMC82CA datasheet
01-18-2018 1.5SMC91CA Document: W0301017, Rev: B Feature WAYON 1.5SMC91CA datasheet
01-18-2018 1.5SMC550A Document: W0301017, Rev: B Feature WAYON 1.5SMC550A datasheet
01-18-2018 1.5SMC530A Document: W0301017, Rev: B Feature WAYON 1.5SMC530A datasheet
01-18-2018 1.5SMC540A Document: W0301017, Rev: B Feature WAYON 1.5SMC540A datasheet
01-18-2018 1.5SMC510A Document: W0301017, Rev: B Feature WAYON 1.5SMC510A datasheet
01-18-2018 1.5SMC440A Document: W0301017, Rev: B Feature WAYON 1.5SMC440A datasheet
01-18-2018 1.5SMC480A Document: W0301017, Rev: B Feature WAYON 1.5SMC480A datasheet
01-18-2018 1.5SMC400A Document: W0301017, Rev: B Feature WAYON 1.5SMC400A datasheet
01-18-2018 1.5SMC300A Document: W0301017, Rev: B Feature WAYON 1.5SMC300A datasheet
01-18-2018 1.5SMC350A Document: W0301017, Rev: B Feature WAYON 1.5SMC350A datasheet
01-18-2018 1.5SMC250A Document: W0301017, Rev: B Feature WAYON 1.5SMC250A datasheet
01-18-2018 1.5SMC200A Document: W0301017, Rev: B Feature WAYON 1.5SMC200A datasheet
01-18-2018 1.5SMC220A Document: W0301017, Rev: B Feature WAYON 1.5SMC220A datasheet
01-18-2018 1.5SMC180A Document: W0301017, Rev: B Feature WAYON 1.5SMC180A datasheet
01-18-2018 1.5SMC160A Document: W0301017, Rev: B Feature WAYON 1.5SMC160A datasheet
01-18-2018 1.5SMC170A Document: W0301017, Rev: B Feature WAYON 1.5SMC170A datasheet
01-18-2018 1.5SMC150A Document: W0301017, Rev: B Feature WAYON 1.5SMC150A datasheet
01-18-2018 1.5SMC120A Document: W0301017, Rev: B Feature WAYON 1.5SMC120A datasheet
01-18-2018 1.5SMC130A Document: W0301017, Rev: B Feature WAYON 1.5SMC130A datasheet
01-18-2018 1.5SMC110A Document: W0301017, Rev: B Feature WAYON 1.5SMC110A datasheet
01-18-2018 1.5SMC91A Document: W0301017, Rev: B Feature WAYON 1.5SMC91A datasheet
01-18-2018 1.5SMC100A Document: W0301017, Rev: B Feature WAYON 1.5SMC100A datasheet
01-18-2018 1.5SMC82A Document: W0301017, Rev: B Feature WAYON 1.5SMC82A datasheet
01-18-2018 1.5SMC68CA Document: W0301017, Rev: B Feature WAYON 1.5SMC68CA datasheet
01-18-2018 1.5SMC75CA Document: W0301017, Rev: B Feature WAYON 1.5SMC75CA datasheet
01-18-2018 1.5SMC62CA Document: W0301017, Rev: B Feature WAYON 1.5SMC62CA datasheet
01-18-2018 1.5SMC51CA Document: W0301017, Rev: B Feature WAYON 1.5SMC51CA datasheet
01-18-2018 1.5SMC56CA Document: W0301017, Rev: B Feature WAYON 1.5SMC56CA datasheet
01-18-2018 1.5SMC47CA Document: W0301017, Rev: B Feature WAYON 1.5SMC47CA datasheet
01-18-2018 1.5SMC39CA Document: W0301017, Rev: B Feature WAYON 1.5SMC39CA datasheet
01-18-2018 1.5SMC43CA Document: W0301017, Rev: B Feature WAYON 1.5SMC43CA datasheet
01-18-2018 1.5SMC36CA Document: W0301017, Rev: B Feature WAYON 1.5SMC36CA datasheet
01-18-2018 1.5SMC30CA Document: W0301017, Rev: B Feature WAYON 1.5SMC30CA datasheet
01-18-2018 1.5SMC33CA Document: W0301017, Rev: B Feature WAYON 1.5SMC33CA datasheet
01-18-2018 1.5SMC27CA Document: W0301017, Rev: B Feature WAYON 1.5SMC27CA datasheet
01-18-2018 1.5SMC22CA Document: W0301017, Rev: B Feature WAYON 1.5SMC22CA datasheet
01-18-2018 1.5SMC24CA Document: W0301017, Rev: B Feature WAYON 1.5SMC24CA datasheet
01-18-2018 1.5SMC20CA Document: W0301017, Rev: B Feature WAYON 1.5SMC20CA datasheet
01-18-2018 1.5SMC16CA Document: W0301017, Rev: B Feature WAYON 1.5SMC16CA datasheet
01-18-2018 1.5SMC18CA Document: W0301017, Rev: B Feature WAYON 1.5SMC18CA datasheet
01-18-2018 1.5SMC15CA Document: W0301017, Rev: B Feature WAYON 1.5SMC15CA datasheet
01-18-2018 1.5SMC12CA Document: W0301017, Rev: B Feature WAYON 1.5SMC12CA datasheet
01-18-2018 1.5SMC13CA Document: W0301017, Rev: B Feature WAYON 1.5SMC13CA datasheet
01-18-2018 1.5SMC11CA Document: W0301017, Rev: B Feature WAYON 1.5SMC11CA datasheet
01-18-2018 1.5SMC9.1CA Document: W0301017, Rev: B Feature WAYON 1.5SMC9.1CA datasheet
01-18-2018 1.5SMC10CA Document: W0301017, Rev: B Feature WAYON 1.5SMC10CA datasheet
01-18-2018 1.5SMC8.2CA Document: W0301017, Rev: B Feature WAYON 1.5SMC8.2CA datasheet
01-18-2018 1.5SMC6.8CA Document: W0301017, Rev: B Feature WAYON 1.5SMC6.8CA datasheet
01-18-2018 1.5SMC7.5CA Document: W0301017, Rev: B Feature WAYON 1.5SMC7.5CA datasheet
01-18-2018 1.5SMC75A Document: W0301017, Rev: B Feature WAYON 1.5SMC75A datasheet
01-18-2018 1.5SMC62A Document: W0301017, Rev: B Feature WAYON 1.5SMC62A datasheet
01-18-2018 1.5SMC68A Document: W0301017, Rev: B Feature WAYON 1.5SMC68A datasheet
01-18-2018 1.5SMC56A Document: W0301017, Rev: B Feature WAYON 1.5SMC56A datasheet
01-18-2018 1.5SMC47A Document: W0301017, Rev: B Feature WAYON 1.5SMC47A datasheet
01-18-2018 1.5SMC51A Document: W0301017, Rev: B Feature WAYON 1.5SMC51A datasheet
01-18-2018 1.5SMC43A Document: W0301017, Rev: B Feature WAYON 1.5SMC43A datasheet
01-18-2018 1.5SMC36A Document: W0301017, Rev: B Feature WAYON 1.5SMC36A datasheet
01-18-2018 1.5SMC39A Document: W0301017, Rev: B Feature WAYON 1.5SMC39A datasheet
01-18-2018 1.5SMC33A Document: W0301017, Rev: B Feature WAYON 1.5SMC33A datasheet
01-18-2018 1.5SMC27A Document: W0301017, Rev: B Feature WAYON 1.5SMC27A datasheet
01-18-2018 1.5SMC30A Document: W0301017, Rev: B Feature WAYON 1.5SMC30A datasheet
01-18-2018 1.5SMC24A Document: W0301017, Rev: B Feature WAYON 1.5SMC24A datasheet
01-18-2018 1.5SMC20A Document: W0301017, Rev: B Feature WAYON 1.5SMC20A datasheet
01-18-2018 1.5SMC22A Document: W0301017, Rev: B Feature WAYON 1.5SMC22A datasheet
01-18-2018 1.5SMC18A Document: W0301017, Rev: B Feature WAYON 1.5SMC18A datasheet
01-18-2018 1.5SMC15A Document: W0301017, Rev: B Feature WAYON 1.5SMC15A datasheet
01-18-2018 1.5SMC16A Document: W0301017, Rev: B Feature WAYON 1.5SMC16A datasheet
01-18-2018 1.5SMC13A Document: W0301017, Rev: B Feature WAYON 1.5SMC13A datasheet
01-18-2018 1.5SMC11A Document: W0301017, Rev: B Feature WAYON 1.5SMC11A datasheet
01-18-2018 1.5SMC12A Document: W0301017, Rev: B Feature WAYON 1.5SMC12A datasheet
01-18-2018 1.5SMC10A Document: W0301017, Rev: B Feature WAYON 1.5SMC10A datasheet
01-18-2018 1.5SMC8.2A Document: W0301017, Rev: B Feature WAYON 1.5SMC8.2A datasheet
01-18-2018 1.5SMC9.1A Document: W0301017, Rev: B Feature WAYON 1.5SMC9.1A datasheet
01-18-2018 1.5SMC7.5A Document: W0301017, Rev: B Feature WAYON 1.5SMC7.5A datasheet
01-18-2018 1.5SMC6.8A Document: W0301017, Rev: B Feature WAYON 1.5SMC6.8A datasheet
01-18-2018 R3131N43EA  R3130NxxB/D/H (SOT23-3) are the RICOH R3131N43EA datasheet
01-18-2018 R3131N44EA  R3130NxxB/D/H (SOT23-3) are the RICOH R3131N44EA datasheet
01-18-2018 1N4748A DIP Type Zener Diodes 1N4728A ~ 1N Kexin 1N4748A datasheet
01-18-2018 1N4744A DIP Type Zener Diodes 1N4728A ~ 1N Kexin 1N4744A datasheet
01-18-2018 1N4745A DIP Type Zener Diodes 1N4728A ~ 1N Kexin 1N4745A datasheet
01-18-2018 1N4754A DIP Type Zener Diodes 1N4728A ~ 1N Kexin 1N4754A datasheet
01-18-2018 1N4751A DIP Type Zener Diodes 1N4728A ~ 1N Kexin 1N4751A datasheet
01-18-2018 1N4735A DIP Type Zener Diodes 1N4728A ~ 1N Kexin 1N4735A datasheet
01-18-2018 1N4757A DIP Type Zener Diodes 1N4728A ~ 1N Kexin 1N4757A datasheet
01-18-2018 S5Y S5A ... S5Y S5A ... S5Y Standard R Diotec S5Y datasheet
01-18-2018 BUY47 HIGH VOLTAGE, HIGH CURRENT NPN TRAN TT BUY47 datasheet
01-18-2018 S5W S5A ... S5Y S5A ... S5Y Standard R Diotec S5W datasheet
01-18-2018 S5K S5A ... S5Y S5A ... S5Y Standard R Diotec S5K datasheet
01-18-2018 S5D S5A ... S5Y S5A ... S5Y Standard R Diotec S5D datasheet
01-18-2018 S5G S5A ... S5Y S5A ... S5Y Standard R Diotec S5G datasheet
01-18-2018 S5A S5A ... S5Y S5A ... S5Y Standard R Diotec S5A datasheet
01-18-2018 S5K 5.0A Surface Mount Rectifier S5A TAITRON S5K datasheet
01-18-2018 S5D 5.0A Surface Mount Rectifier S5A TAITRON S5D datasheet
01-18-2018 S5M www.vishay.com S5A, S5B, S5D, S5G, Vishay S5M datasheet
01-18-2018 S5J www.vishay.com S5A, S5B, S5D, S5G, Vishay S5J datasheet
01-18-2018 S5B www.vishay.com S5A, S5B, S5D, S5G, Vishay S5B datasheet
01-18-2018 S5M S5A - S5M Taiwan Semiconductor 5A, Taiwan Semiconductor S5M datasheet
01-18-2018 S5D S5A - S5M Taiwan Semiconductor 5A, Taiwan Semiconductor S5D datasheet
01-18-2018 S5G S5A - S5M Taiwan Semiconductor 5A, Taiwan Semiconductor S5G datasheet
01-18-2018 S5A S5A - S5M Taiwan Semiconductor 5A, Taiwan Semiconductor S5A datasheet
01-18-2018 1N4741A DIP Type Zener Diodes 1N4728A ~ 1N Kexin 1N4741A datasheet
01-18-2018 1N4742A DIP Type Zener Diodes 1N4728A ~ 1N Kexin 1N4742A datasheet
01-18-2018 S5G S5A ... S5M www..com S Semikron International S5G datasheet
01-18-2018 1N4739A DIP Type Zener Diodes 1N4728A ~ 1N Kexin 1N4739A datasheet
01-18-2018 1N4740A DIP Type Zener Diodes 1N4728A ~ 1N Kexin 1N4740A datasheet
01-18-2018 1N4738A DIP Type Zener Diodes 1N4728A ~ 1N Kexin 1N4738A datasheet
01-18-2018 TL074 Order this document by TL071C/D Lo Motorola TL074 datasheet
01-18-2018 TL072AC Order this document by TL071C/D Lo Motorola TL072AC datasheet
01-18-2018 Si4668DY N-Channel 25-V (D-S) MOSFET Si4668 Vishay Si4668DY datasheet
01-18-2018 TL064 Order this document by TL062/D Low Motorola TL064 datasheet


The site has been moved : DatasheetsPDF.com
Since 2005 - HOME - Link US - All - Privacy Policy & Contact Us -